Woodinville, Washington, United States (98072)
Lat: 47.75N, Lon: 122.16W
Wx Zone: WAZ505
Local Info
Past Weather Observations for Saturday, August 27, 2016

NOTE: This archive is for the closest National Weather Service station to Woodinville. Information may differ from the station used for current weather conditions.

Click here for Long-term Archive

Time Weather Temperature Dewpoint Humidity Pressure Winds Precip Visibility
23:53
Overcast
59°F / 15°C 54°F / 12°C 82% 30.04 in
(1017 mb)
Calm - 10SM
22:53
Overcast
57°F / 14°C 52°F / 11°C 82% 30.04 in
(1017 mb)
NNE 4.6 mph
(NNE 7 kph)
- 10SM
21:53
Overcast
57°F / 14°C 52°F / 11°C 82% 30.01 in
(1016 mb)
NE 5.8 mph
(NE 9 kph)
- 10SM
21:22
Overcast
57°F / 14°C 52°F / 11°C 82% 30.01 in
(1016 mb)
N 4.6 mph
(N 7 kph)
- 10SM
20:53
Overcast
57°F / 14°C 52°F / 11°C 82% 29.98 in
(1015 mb)
NNE 5.8 mph
(NNE 9 kph)
- 10SM
19:53
Mostly Cloudy
59°F / 15°C 52°F / 11°C 77% 29.98 in
(1015 mb)
N 5.8 mph
(N 9 kph)
- 10SM
18:53
Overcast
61°F / 16°C 52°F / 11°C 72% 29.95 in
(1014 mb)
NNE 5.8 mph
(NNE 9 kph)
- 10SM
18:10
Overcast
63°F / 17°C 52°F / 11°C 68% 29.95 in
(1014 mb)
N 6.9 mph
(N 11 kph)
- 10SM
17:53
Overcast
63°F / 17°C 54°F / 12°C 73% 29.95 in
(1014 mb)
N 8.1 mph
(N 13 kph)
- 10SM
16:53
Overcast
68°F / 20°C 54°F / 12°C 60% 29.92 in
(1013 mb)
S 9.2 mph
(S 15 kph)
- 10SM
16:25
Overcast
68°F / 20°C 54°F / 12°C 60% 29.92 in
(1013 mb)
SSE 9.2 mph
(SSE 15 kph)
- 10SM
16:13
Overcast
68°F / 20°C 54°F / 12°C 60% 29.92 in
(1013 mb)
SSE 9.2 mph
(SSE 15 kph)
- 10SM
16:01
Overcast
68°F / 20°C 54°F / 12°C 60% 29.92 in
(1013 mb)
S 10.4 mph
(S 17 kph)
- 10SM
15:53
Overcast
68°F / 20°C 54°F / 12°C 60% 29.92 in
(1013 mb)
S 11.5 mph
(S 19 kph)
- 10SM
14:53
Mostly Cloudy
66°F / 19°C 54°F / 12°C 64% 29.92 in
(1013 mb)
S 9.2 mph
(S 15 kph)
- 10SM
14:30
Partly Cloudy
66°F / 19°C 55°F / 13°C 68% 29.92 in
(1013 mb)
S 12.7 mph
(S 20 kph)
- 10SM
14:20
Mostly Cloudy
68°F / 20°C 55°F / 13°C 64% 29.92 in
(1013 mb)
S 11.5 mph
(S 19 kph)
- 10SM
14:13
Partly Cloudy
68°F / 20°C 55°F / 13°C 64% 29.92 in
(1013 mb)
S 12.7 mph
(S 20 kph)
- 10SM
13:53
Mostly Cloudy
66°F / 19°C 54°F / 12°C 64% 29.92 in
(1013 mb)
S 11.5 mph
(S 19 kph)
- 10SM
12:53
Overcast
66°F / 19°C 54°F / 12°C 64% 29.92 in
(1013 mb)
S 10.4 mph
(S 17 kph)
- 10SM
11:53
Mostly Cloudy
66°F / 19°C 54°F / 12°C 64% 29.89 in
(1012 mb)
S 12.7 mph
(S 20 kph)
- 10SM
10:53
Mostly Cloudy
64°F / 18°C 54°F / 12°C 68% 29.89 in
(1012 mb)
SSE 20.7 mph
(SSE 33 kph)
- 10SM
10:04
Overcast
64°F / 18°C 54°F / 12°C 68% 29.89 in
(1012 mb)
S 13.8 mph
(S 22 kph)
- 10SM
09:53
Overcast
63°F / 17°C 54°F / 12°C 73% 29.89 in
(1012 mb)
S 11.5 mph
(S 19 kph)
- 10SM
09:14
Overcast
63°F / 17°C 54°F / 12°C 73% 29.89 in
(1012 mb)
S 12.7 mph
(S 20 kph)
- 10SM
09:07
Overcast
63°F / 17°C 54°F / 12°C 73% 29.86 in
(1011 mb)
S 13.8 mph
(S 22 kph)
- 10SM
08:53
Overcast
63°F / 17°C 54°F / 12°C 73% 29.86 in
(1011 mb)
S 13.8 mph
(S 22 kph)
- 10SM
07:53
Overcast
63°F / 17°C 54°F / 12°C 73% 29.83 in
(1010 mb)
S 10.4 mph
(S 17 kph)
- 10SM
06:53
Mostly Cloudy
61°F / 16°C 54°F / 12°C 77% 29.83 in
(1010 mb)
SSE 11.5 mph
(SSE 19 kph)
- 10SM
05:53
Clear
61°F / 16°C 54°F / 12°C 77% 29.8 in
(1009 mb)
S 12.7 mph
(S 20 kph)
- 10SM
04:53
Clear
64°F / 18°C 48°F / 9°C 56% 29.8 in
(1009 mb)
SSE 10.4 mph
(SSE 17 kph)
- 10SM
03:53
Clear
68°F / 20°C 52°F / 11°C 56% 29.77 in
(1008 mb)
SSE 11.5 mph
(SSE 19 kph)
- 10SM
02:53
Clear
70°F / 21°C 52°F / 11°C 53% 29.77 in
(1008 mb)
SSE 9.2 mph
(SSE 15 kph)
- 10SM
01:53
Clear
68°F / 20°C 48°F / 9°C 49% 29.8 in
(1009 mb)
SE 5.8 mph
(SE 9 kph)
- 10SM
00:53
Clear
70°F / 21°C 50°F / 10°C 50% 29.8 in
(1009 mb)
Calm - 10SM
Time Weather Temperature Dewpoint Humidity Pressure Winds Precip Visibility


Weather for websites

WeatherForYou.com, LLC is not responsible for any damages or problems caused by this service. Current weather conditions are obtained from the closest station including government and personal stations which may have varying degrees of accuracy. Weather forecasts are derived from the NOAA NDFD. Like all things, this site belongs to Jesus Christ... He just trusts us to maintain it. If you have any questions or comments email webmaster@weatherforyou.com

Copyright © 2016, WeatherForYou.com LLC. All rights reserved.